Weather History for K12N - December, 2013

Change the Weather History Date:

Wednesday, December 25, 2013

  Actual Average (KFWN) Record (KFWN)
Temperature  
Mean Temperature 20 °F -  
Max Temperature 25 °F 36 °F 62 °F (2014)
Min Temperature 14 °F 15 °F -11 °F (1989)
Degree Days  
Heating Degree Days 46    
Moisture  
Dew Point 7 °F    
Average Humidity 56    
Maximum Humidity 75    
Minimum Humidity 45    
Precipitation  
Precipitation 0.00 in - - ()
Sea Level Pressure  
Sea Level Pressure 30.49 in    
Wind  
Wind Speed 4 mph (West)    
Max Wind Speed 8 mph    
Max Gust Speed -    
Averages and records for this station are not official NWS values.
T = Trace of Precipitation, MM = Missing Value Source: NWS Daily Summary

Daily Weather History Graph

Daily Weather History Graph

Search for Another Location

Airport or City:

Trip Planner

Search our weather history database for the weather conditions in past years. The results will help you decide how hot, cold, wet, or windy it might be!

Date:

Astronomy

Dec. 25, 2013 Rise Set
Actual Time 7:22 AM EST 4:36 PM EST
Civil Twilight 6:51 AM EST 5:07 PM EST
Nautical Twilight 6:16 AM EST 5:42 PM EST
Astronomical Twilight 5:42 AM EST 6:15 PM EST
Moon No Moon Rise 11:41 AM EST (12/25)
Length of Visible Light 10h 16m
Length of Day
9h 13m
Waning Gibbous, 49% of the Moon is Illuminated
Dec 25
Waning Gibbous
Jan 1
New
Jan 7
First Quarter
Jan 15
Full
Jan 24
Last Quarter

Hourly Weather History & Observations

Time (EST) Temp. Windchill Dew Point Humidity Pressure Visibility Wind Dir Wind Speed Gust Speed Precip Events Conditions
12:54 AM 19.9 °F 14.9 °F 7.0 °F 57% 30.41 in - Variable 3.5 mph - N/A   Unknown
1:54 AM 19.0 °F 11.1 °F 3.9 °F 52% 30.43 in - Variable 5.8 mph - N/A   Unknown
2:54 AM 18.0 °F 11.1 °F 5.0 °F 57% 30.45 in - North 4.6 mph - N/A   Unknown
3:54 AM 17.1 °F 6.6 °F 3.9 °F 56% 30.47 in - North 8.1 mph - N/A   Unknown
4:54 AM 16.0 °F 6.3 °F 3.9 °F 59% 30.48 in - Variable 6.9 mph - N/A   Unknown
5:54 AM 15.1 °F - 3.9 °F 61% 30.51 in - Calm Calm - N/A   Unknown
6:54 AM 14.0 °F 3.9 °F 3.9 °F 64% 30.52 in - North 6.9 mph - N/A   Unknown
7:54 AM 14.0 °F 6.5 °F 3.9 °F 64% 30.54 in - Variable 4.6 mph - N/A   Unknown
8:54 AM 17.1 °F 8.7 °F 3.9 °F 56% 30.55 in - Variable 5.8 mph - N/A   Unknown
9:54 AM 19.0 °F 12.3 °F 5.0 °F 54% 30.55 in - Variable 4.6 mph - N/A   Unknown
10:54 AM 21.0 °F 14.6 °F 6.1 °F 53% 30.53 in - Variable 4.6 mph - N/A   Unknown
11:54 AM 21.9 °F 17.2 °F 6.1 °F 51% 30.52 in - Variable 3.5 mph - N/A   Unknown
12:54 PM 23.0 °F 18.4 °F 7.0 °F 50% 30.50 in - North 3.5 mph - N/A   Unknown
1:54 PM 24.1 °F - 6.1 °F 46% 30.50 in - Calm Calm - N/A   Unknown
2:54 PM 25.0 °F - 7.0 °F 46% 30.50 in - Calm Calm - N/A   Unknown
3:54 PM 25.0 °F - 6.1 °F 45% 30.50 in - Calm Calm - N/A   Unknown
4:54 PM 25.0 °F - 7.0 °F 46% 30.51 in - Calm Calm - N/A   Unknown
5:54 PM 21.9 °F - 10.9 °F 63% 30.51 in - Calm Calm - N/A   Unknown
6:54 PM 21.0 °F - 12.0 °F 68% 30.51 in - Calm Calm - N/A   Unknown
7:54 PM 21.9 °F - 15.1 °F 75% 30.51 in - Calm Calm - N/A   Unknown
8:54 PM 24.1 °F 18.2 °F 10.0 °F 55% 30.49 in - SSW 4.6 mph - N/A   Unknown
9:54 PM 24.1 °F 19.7 °F 10.0 °F 55% 30.48 in - South 3.5 mph - N/A   Unknown
10:54 PM 24.1 °F 19.7 °F 10.0 °F 55% 30.46 in - South 3.5 mph - N/A   Unknown
11:54 PM 24.1 °F 19.7 °F 10.9 °F 57% 30.44 in - SSW 3.5 mph - N/A   Unknown